PAKSAT-MM1

Last updated on Tue Sep 22 2026 00:03:16 GMT+0000 (Coordinated Universal Time)

1 59915U 24104A 26264.21156279 .00000150 00000+0 00000+0 0 9997 2 59915 0.0265 210.4220 0002280 326.7018 297.3265 1.00274314 8491
UTC large
Height (km)
Speed (km/s)
/
Latitude / Longitude
Inclination (degrees)
Orbital Period (minutes)
Azimuth
Elevation
Range (km)
Doppler Factor

Next 0 passes for location: London (51.5072 / 0.1276)

No passes found over London.
PAKSAT-MM1